QPF
0.00 0.00 0.00 0.00 0.00 0.00 0.00 0.00 0.00 0.00 0.00 0.00 0.00 0.00 0.00 0.00 0.00 0.00 0.00 0.00 0.00 0.00 0.02 0.03 0.04 0.05 0.05 0.05 0.04 0.06 0.05 0.06 0.07 0.08 0.08 0.08 0.08 0.10 0.08 0.07 0.07 0.06 0.07
0.00 0.00 0.00 0.00 0.00 0.00 0.00 0.00 0.00 0.00 0.00 0.00 0.00 0.00 0.00 0.00 0.00 0.00 0.00 0.01 0.01 0.02 0.01 0.03 0.05 0.05 0.06 0.06 0.06 0.06 0.06 0.05 0.06 0.08 0.09 0.09 0.11 0.10 0.06 0.06 0.06 0.08 0.09
0.00 0.00 0.00 0.00 0.00 0.00 0.00 0.00 0.00 0.00 0.00 0.00 0.00 0.00 0.00 0.00 0.00 0.00 0.01 0.01 0.01 0.02 0.03 0.04 0.04 0.05 0.06 0.06 0.07 0.07 0.06 0.06 0.06 0.07 0.08 0.09 0.11 0.12 0.09 0.06 0.05 0.08 0.10
0.00 0.00 0.00 0.00 0.00 0.00 0.00 0.00 0.00 0.00 0.00 0.00 0.00 0.00 0.00 0.00 0.00 0.00 0.01 0.01 0.03 0.03 0.03 0.04 0.03 0.03 0.05 0.06 0.06 0.07 0.06 0.06 0.05 0.05 0.06 0.06 0.09 0.11 0.12 0.10 0.08 0.06 0.08
0.00 0.00 0.00 0.00 0.00 0.00 0.00 0.00 0.00 0.00 0.00 0.00 0.00 0.00 0.00 0.00 0.00 0.00 0.01 0.02 0.03 0.01 0.01 0.01 0.02 0.03 0.03 0.03 0.04 0.06 0.05 0.05 0.04 0.05 0.05 0.05 0.06 0.07 0.09 0.10 0.10 0.08 0.07
0.00 0.00 0.00 0.00 0.00 0.00 0.00 0.00 0.00 0.00 0.00 0.00 0.00 0.00 0.00 0.00 0.00 0.00 0.01 0.01 0.01 0.01 0.00 0.00 0.01 0.02 0.02 0.02 0.02 0.03 0.03 0.03 0.03 0.05 0.05 0.05 0.06 0.07 0.07 0.07 0.09 0.10 0.08
0.00 0.00 0.00 0.00 0.00 0.00 0.00 0.00 0.00 0.00 0.00 0.00 0.00 0.00 0.00 0.00 0.00 0.00 0.00 0.00 0.00 0.00 0.00 0.01 0.01 0.01 0.01 0.02 0.02 0.03 0.02 0.02 0.02 0.03 0.03 0.04 0.05 0.06 0.06 0.07 0.07 0.08 0.07
0.00 0.00 0.00 0.00 0.00 0.00 0.00 0.00 0.00 0.00 0.00 0.00 0.00 0.00 0.00 0.00 0.00 0.00 0.00 0.00 0.00 0.00 0.00 0.01 0.01 0.01 0.01 0.02 0.03 0.03 0.02 0.02 0.01 0.01 0.02 0.03 0.03 0.04 0.05 0.06 0.07 0.07 0.07
0.00 0.00 0.00 0.00 0.00 0.00 0.00 0.00 0.00 0.00 0.00 0.00 0.00 0.00 0.00 0.00 0.00 0.00 0.00 0.00 0.00 0.00 0.00 0.00 0.01 0.01 0.00 0.01 0.02 0.03 0.03 0.03 0.02 0.02 0.02 0.02 0.03 0.03 0.04 0.04 0.06 0.06 0.06
0.00 0.00 0.00 0.00 0.00 0.00 0.00 0.00 0.00 0.00 0.00 0.00 0.00 0.00 0.00 0.00 0.00 0.00 0.00 0.00 0.00 0.00 0.00 0.00 0.01 0.01 0.01 0.01 0.01 0.01 0.02 0.03 0.03 0.03 0.03 0.03 0.02 0.02 0.03 0.03 0.05 0.05 0.06
0.00 0.00 0.00 0.00 0.00 0.00 0.00 0.00 0.00 0.00 0.00 0.00 0.00 0.00 0.00 0.00 0.00 0.00 0.00 0.00 0.00 0.00 0.00 0.00 0.00 0.01 0.01 0.01 0.01 0.01 0.01 0.01 0.02 0.02 0.02 0.03 0.03 0.02 0.03 0.03 0.03 0.04 0.05
0.00 0.00 0.00 0.00 0.00 0.00 0.00 0.00 0.00 0.00 0.00 0.00 0.00 0.00 0.00 0.00 0.00 0.00 0.00 0.00 0.00 0.00 0.00 0.00 0.00 0.00 0.00 0.01 0.02 0.01 0.01 0.02 0.02 0.02 0.02 0.02 0.03 0.03 0.03 0.04 0.03 0.03 0.04
0.00 0.00 0.00 0.00 0.00 0.00 0.00 0.00 0.00 0.00 0.00 0.00 0.00 0.00 0.00 0.00 0.00 0.00 0.00 0.00 0.00 0.00 0.00 0.00 0.00 0.00 0.00 0.01 0.01 0.02 0.01 0.01 0.02 0.02 0.02 0.02 0.03 0.03 0.03 0.03 0.03 0.03 0.04
0.00 0.00 0.00 0.00 0.00 0.00 0.00 0.00 0.00 0.00 0.00 0.00 0.00 0.00 0.00 0.00 0.00 0.00 0.00 0.00 0.00 0.00 0.00 0.00 0.00 0.00 0.00 0.01 0.01 0.02 0.02 0.03 0.03 0.03 0.02 0.02 0.03 0.03 0.03 0.03 0.03 0.03 0.04
0.00 0.00 0.00 0.00 0.00 0.00 0.00 0.00 0.00 0.00 0.00 0.00 0.00 0.00 0.00 0.00 0.00 0.00 0.00 0.00 0.00 0.00 0.01 0.01 0.00 0.00 0.00 0.00 0.00 0.01 0.03 0.03 0.03 0.03 0.03 0.03 0.02 0.01 0.02 0.02 0.03 0.03 0.04
0.00 0.00 0.00 0.00 0.00 0.00 0.00 0.00 0.00 0.00 0.00 0.00 0.00 0.00 0.00 0.00 0.00 0.00 0.00 0.00 0.00 0.00 0.00 0.01 0.00 0.00 0.00 0.00 0.00 0.01 0.02 0.03 0.03 0.02 0.03 0.03 0.03 0.02 0.01 0.01 0.01 0.02 0.04
0.00 0.00 0.00 0.00 0.00 0.00 0.00 0.00 0.00 0.00 0.00 0.00 0.00 0.00 0.00 0.00 0.00 0.00 0.00 0.00 0.00 0.00 0.00 0.00 0.00 0.00 0.00 0.00 0.00 0.00 0.02 0.03 0.03 0.03 0.02 0.02 0.02 0.02 0.02 0.01 0.01 0.02 0.03
0.00 0.00 0.00 0.00 0.00 0.00 0.00 0.00 0.00 0.00 0.00 0.00 0.00 0.00 0.00 0.00 0.00 0.00 0.00 0.00 0.00 0.00 0.00 0.00 0.00 0.00 0.00 0.00 0.00 0.00 0.01 0.01 0.02 0.02 0.02 0.02 0.02 0.01 0.02 0.02 0.02 0.02 0.01
0.00 0.00 0.00 0.00 0.00 0.00 0.00 0.00 0.00 0.00 0.00 0.00 0.00 0.00 0.00 0.00 0.00 0.00 0.00 0.00 0.00 0.00 0.00 0.00 0.00 0.00 0.00 0.00 0.00 0.00 0.00 0.01 0.01 0.01 0.01 0.02 0.01 0.01 0.02 0.03 0.03 0.01 0.01
0.00 0.00 0.00 0.00 0.00 0.00 0.00 0.00 0.00 0.00 0.00 0.00 0.00 0.00 0.00 0.00 0.00 0.00 0.00 0.00 0.00 0.00 0.00 0.00 0.00 0.00 0.00 0.00 0.00 0.01 0.01 0.01 0.01 0.01 0.01 0.02 0.01 0.01 0.01 0.01 0.02 0.01 0.01
0.00 0.00 0.00 0.00 0.00 0.00 0.00 0.00 0.00 0.00 0.00 0.00 0.00 0.00 0.00 0.00 0.00 0.00 0.00 0.00 0.00 0.00 0.00 0.00 0.00 0.00 0.00 0.00 0.00 0.00 0.01 0.01 0.01 0.01 0.02 0.02 0.01 0.01 0.00 0.00 0.00 0.00 0.00
0.00 0.00 0.00 0.00 0.00 0.00 0.00 0.00 0.00 0.00 0.00 0.00 0.00 0.00 0.00 0.00 0.00 0.00 0.00 0.00 0.00 0.00 0.00 0.00 0.00 0.00 0.00 0.00 0.00 0.00 0.00 0.00 0.01 0.01 0.01 0.01 0.00 0.00 0.00 0.00 0.00 0.00 0.00
0.00 0.00 0.00 0.00 0.00 0.00 0.00 0.00 0.00 0.00 0.00 0.00 0.00 0.00 0.00 0.00 0.00 0.00 0.00 0.00 0.00 0.00 0.00 0.00 0.00 0.00 0.00 0.00 0.00 0.00 0.00 0.00 0.00 0.00 0.00 0.00 0.00 0.00 0.00 0.00 0.00 0.01 0.01
0.00 0.00 0.00 0.00 0.00 0.00 0.00 0.00 0.00 0.00 0.00 0.00 0.00 0.00 0.00 0.00 0.00 0.00 0.00 0.00 0.00 0.00 0.00 0.00 0.00 0.00 0.00 0.00 0.00 0.00 0.00 0.00 0.00 0.00 0.00 0.00 0.00 0.00 0.00 0.01 0.01 0.01 0.02
0.00 0.00 0.00 0.00 0.00 0.00 0.00 0.00 0.00 0.00 0.00 0.00 0.00 0.00 0.00 0.00 0.00 0.00 0.00 0.00 0.00 0.00 0.00 0.00 0.00 0.00 0.00 0.00 0.00 0.00 0.00 0.00 0.00 0.00 0.00 0.01 0.01 0.01 0.01 0.01 0.02 0.01 0.01
0.00 0.00 0.00 0.00 0.00 0.00 0.00 0.00 0.00 0.00 0.00 0.00 0.00 0.00 0.00 0.00 0.00 0.00 0.00 0.00 0.00 0.00 0.00 0.00 0.00 0.00 0.00 0.00 0.00 0.00 0.00 0.00 0.00 0.00 0.00 0.00 0.01 0.01 0.01 0.01 0.01 0.01 0.01
MSLP
1007.89 1008.25 1008.59 1008.90 1009.17 1009.41 1009.65 1009.91 1010.18 1010.49 1010.80 1011.10 1011.35 1011.53 1011.63 1011.64 1011.58 1011.47 1011.35 1011.23 1011.13 1011.06 1011.01 1010.96 1010.90 1010.80 1010.67 1010.52 1010.36 1010.23 1010.16 1010.16 1010.25 1010.42 1010.63 1010.86 1011.07 1011.21 1011.27 1011.24 1011.14 1010.99 1010.84
1007.61 1007.98 1008.33 1008.65 1008.94 1009.21 1009.48 1009.78 1010.13 1010.50 1010.89 1011.25 1011.55 1011.75 1011.85 1011.84 1011.74 1011.58 1011.42 1011.28 1011.18 1011.12 1011.10 1011.08 1011.04 1010.96 1010.82 1010.64 1010.44 1010.25 1010.12 1010.08 1010.13 1010.27 1010.48 1010.73 1010.95 1011.12 1011.21 1011.20 1011.10 1010.96 1010.80
1007.26 1007.65 1008.03 1008.38 1008.71 1009.02 1009.34 1009.70 1010.11 1010.55 1010.99 1011.40 1011.73 1011.95 1012.05 1012.02 1011.89 1011.71 1011.52 1011.36 1011.25 1011.21 1011.20 1011.21 1011.18 1011.11 1010.97 1010.77 1010.54 1010.31 1010.14 1010.05 1010.07 1010.19 1010.39 1010.63 1010.87 1011.06 1011.16 1011.18 1011.11 1010.98 1010.83
1006.87 1007.29 1007.72 1008.13 1008.51 1008.88 1009.26 1009.67 1010.12 1010.61 1011.09 1011.52 1011.87 1012.10 1012.19 1012.15 1012.01 1011.82 1011.62 1011.46 1011.35 1011.31 1011.32 1011.33 1011.32 1011.26 1011.12 1010.91 1010.67 1010.43 1010.23 1010.11 1010.10 1010.20 1010.38 1010.61 1010.85 1011.04 1011.16 1011.20 1011.15 1011.05 1010.92
1006.50 1006.97 1007.46 1007.93 1008.38 1008.81 1009.24 1009.69 1010.16 1010.65 1011.14 1011.57 1011.92 1012.14 1012.24 1012.20 1012.07 1011.89 1011.70 1011.55 1011.45 1011.42 1011.43 1011.45 1011.45 1011.39 1011.26 1011.07 1010.84 1010.60 1010.40 1010.28 1010.25 1010.32 1010.48 1010.69 1010.90 1011.09 1011.21 1011.25 1011.23 1011.15 1011.04
1006.20 1006.73 1007.29 1007.83 1008.34 1008.82 1009.28 1009.74 1010.20 1010.67 1011.12 1011.52 1011.85 1012.06 1012.16 1012.15 1012.04 1011.89 1011.73 1011.61 1011.53 1011.50 1011.52 1011.54 1011.55 1011.50 1011.39 1011.23 1011.02 1010.81 1010.64 1010.52 1010.49 1010.55 1010.67 1010.85 1011.03 1011.19 1011.29 1011.34 1011.33 1011.27 1011.18
1006.03 1006.60 1007.23 1007.84 1008.40 1008.91 1009.38 1009.81 1010.23 1010.63 1011.01 1011.36 1011.64 1011.84 1011.95 1011.97 1011.91 1011.81 1011.70 1011.61 1011.56 1011.55 1011.57 1011.59 1011.60 1011.57 1011.49 1011.36 1011.21 1011.04 1010.90 1010.81 1010.79 1010.83 1010.93 1011.06 1011.20 1011.33 1011.41 1011.46 1011.45 1011.41 1011.35
1005.97 1006.59 1007.26 1007.92 1008.52 1009.04 1009.48 1009.86 1010.20 1010.52 1010.81 1011.08 1011.32 1011.50 1011.62 1011.68 1011.68 1011.65 1011.60 1011.56 1011.54 1011.55 1011.57 1011.60 1011.61 1011.59 1011.54 1011.46 1011.36 1011.25 1011.16 1011.11 1011.09 1011.13 1011.20 1011.30 1011.40 1011.50 1011.57 1011.61 1011.61 1011.60 1011.56
1005.99 1006.64 1007.34 1008.03 1008.63 1009.14 1009.54 1009.85 1010.10 1010.32 1010.52 1010.72 1010.90 1011.07 1011.21 1011.31 1011.38 1011.42 1011.45 1011.46 1011.48 1011.50 1011.53 1011.55 1011.57 1011.57 1011.55 1011.51 1011.46 1011.41 1011.37 1011.36 1011.37 1011.41 1011.47 1011.54 1011.62 1011.69 1011.75 1011.79 1011.82 1011.83 1011.82
1006.03 1006.67 1007.38 1008.06 1008.66 1009.14 1009.49 1009.74 1009.91 1010.04 1010.16 1010.29 1010.44 1010.60 1010.76 1010.92 1011.05 1011.16 1011.25 1011.32 1011.37 1011.41 1011.45 1011.48 1011.49 1011.51 1011.51 1011.51 1011.52 1011.52 1011.53 1011.56 1011.59 1011.64 1011.69 1011.75 1011.82 1011.88 1011.95 1012.01 1012.07 1012.12 1012.14
1005.97 1006.60 1007.28 1007.95 1008.52 1008.97 1009.28 1009.48 1009.60 1009.68 1009.75 1009.85 1009.98 1010.14 1010.33 1010.53 1010.73 1010.90 1011.05 1011.16 1011.25 1011.31 1011.35 1011.38 1011.40 1011.43 1011.46 1011.49 1011.53 1011.58 1011.63 1011.69 1011.75 1011.80 1011.86 1011.92 1011.99 1012.07 1012.15 1012.24 1012.34 1012.43 1012.50
1005.76 1006.34 1006.98 1007.61 1008.15 1008.57 1008.87 1009.06 1009.17 1009.24 1009.31 1009.41 1009.55 1009.74 1009.96 1010.20 1010.44 1010.66 1010.85 1011.00 1011.11 1011.19 1011.24 1011.28 1011.31 1011.35 1011.40 1011.46 1011.53 1011.61 1011.69 1011.76 1011.84 1011.90 1011.97 1012.04 1012.11 1012.21 1012.32 1012.46 1012.60 1012.73 1012.84
1005.37 1005.88 1006.45 1007.02 1007.54 1007.95 1008.26 1008.48 1008.62 1008.74 1008.85 1009.00 1009.18 1009.40 1009.66 1009.93 1010.20 1010.44 1010.65 1010.82 1010.95 1011.04 1011.11 1011.17 1011.22 1011.28 1011.35 1011.43 1011.52 1011.62 1011.71 1011.79 1011.86 1011.93 1012.00 1012.08 1012.17 1012.29 1012.43 1012.60 1012.78 1012.95 1013.10
1004.82 1005.23 1005.72 1006.23 1006.71 1007.13 1007.48 1007.75 1007.98 1008.18 1008.38 1008.60 1008.84 1009.11 1009.40 1009.69 1009.97 1010.23 1010.44 1010.62 1010.76 1010.87 1010.95 1011.03 1011.11 1011.20 1011.29 1011.40 1011.50 1011.60 1011.69 1011.76 1011.83 1011.89 1011.95 1012.02 1012.13 1012.26 1012.43 1012.62 1012.83 1013.03 1013.20
1004.18 1004.47 1004.86 1005.29 1005.74 1006.17 1006.56 1006.92 1007.26 1007.57 1007.88 1008.19 1008.51 1008.83 1009.15 1009.45 1009.73 1009.98 1010.18 1010.36 1010.50 1010.63 1010.74 1010.85 1010.97 1011.09 1011.21 1011.34 1011.45 1011.55 1011.62 1011.68 1011.72 1011.76 1011.81 1011.87 1011.97 1012.11 1012.28 1012.49 1012.71 1012.92 1013.11
1003.56 1003.72 1003.98 1004.32 1004.72 1005.14 1005.59 1006.03 1006.48 1006.92 1007.34 1007.76 1008.16 1008.53 1008.87 1009.17 1009.44 1009.66 1009.86 1010.02 1010.17 1010.31 1010.45 1010.61 1010.76 1010.92 1011.08 1011.22 1011.35 1011.44 1011.50 1011.53 1011.54 1011.55 1011.57 1011.62 1011.70 1011.83 1012.00 1012.20 1012.42 1012.63 1012.82
1003.05 1003.06 1003.19 1003.42 1003.75 1004.15 1004.62 1005.14 1005.68 1006.22 1006.76 1007.27 1007.74 1008.16 1008.52 1008.82 1009.07 1009.27 1009.45 1009.60 1009.76 1009.92 1010.10 1010.29 1010.49 1010.70 1010.89 1011.05 1011.18 1011.26 1011.31 1011.31 1011.29 1011.27 1011.26 1011.28 1011.34 1011.45 1011.60 1011.79 1012.00 1012.20 1012.38
1002.75 1002.60 1002.58 1002.68 1002.92 1003.27 1003.74 1004.28 1004.88 1005.50 1006.12 1006.70 1007.23 1007.69 1008.07 1008.37 1008.62 1008.81 1008.97 1009.13 1009.30 1009.49 1009.70 1009.93 1010.17 1010.41 1010.63 1010.81 1010.95 1011.03 1011.05 1011.04 1010.99 1010.94 1010.91 1010.91 1010.95 1011.03 1011.17 1011.34 1011.52 1011.71 1011.87
1002.67 1002.37 1002.20 1002.16 1002.28 1002.55 1002.97 1003.50 1004.11 1004.77 1005.43 1006.06 1006.63 1007.13 1007.53 1007.86 1008.11 1008.31 1008.48 1008.66 1008.84 1009.06 1009.30 1009.57 1009.84 1010.11 1010.35 1010.55 1010.68 1010.76 1010.78 1010.75 1010.69 1010.63 1010.57 1010.56 1010.58 1010.66 1010.78 1010.93 1011.10 1011.27 1011.42
1002.81 1002.37 1002.05 1001.87 1001.85 1002.01 1002.34 1002.80 1003.39 1004.03 1004.71 1005.36 1005.96 1006.49 1006.93 1007.29 1007.58 1007.81 1008.02 1008.23 1008.45 1008.70 1008.97 1009.26 1009.56 1009.84 1010.09 1010.29 1010.43 1010.50 1010.52 1010.49 1010.43 1010.37 1010.32 1010.30 1010.32 1010.39 1010.51 1010.65 1010.80 1010.96 1011.10
1003.10 1002.55 1002.10 1001.77 1001.61 1001.64 1001.84 1002.21 1002.72 1003.32 1003.97 1004.62 1005.25 1005.82 1006.31 1006.73 1007.07 1007.37 1007.64 1007.90 1008.17 1008.45 1008.75 1009.06 1009.36 1009.65 1009.90 1010.10 1010.24 1010.31 1010.33 1010.31 1010.26 1010.21 1010.18 1010.18 1010.21 1010.29 1010.40 1010.53 1010.68 1010.82 1010.95
1003.48 1002.85 1002.28 1001.83 1001.53 1001.40 1001.47 1001.71 1002.11 1002.64 1003.24 1003.88 1004.52 1005.13 1005.68 1006.18 1006.62 1007.00 1007.36 1007.69 1008.01 1008.34 1008.66 1008.98 1009.29 1009.57 1009.81 1010.00 1010.13 1010.21 1010.25 1010.24 1010.22 1010.19 1010.19 1010.20 1010.25 1010.34 1010.46 1010.59 1010.73 1010.86 1010.98
1003.88 1003.19 1002.54 1001.97 1001.54 1001.27 1001.19 1001.29 1001.57 1001.99 1002.53 1003.14 1003.79 1004.44 1005.07 1005.66 1006.20 1006.70 1007.15 1007.57 1007.97 1008.34 1008.69 1009.03 1009.33 1009.60 1009.82 1010.00 1010.13 1010.22 1010.26 1010.28 1010.29 1010.30 1010.32 1010.36 1010.43 1010.53 1010.64 1010.77 1010.90 1011.02 1011.12
1004.24 1003.52 1002.80 1002.15 1001.61 1001.20 1000.98 1000.93 1001.08 1001.39 1001.85 1002.42 1003.07 1003.76 1004.46 1005.15 1005.80 1006.41 1006.98 1007.50 1007.97 1008.40 1008.79 1009.13 1009.43 1009.69 1009.91 1010.08 1010.21 1010.30 1010.36 1010.41 1010.44 1010.48 1010.53 1010.59 1010.67 1010.77 1010.89 1011.00 1011.12 1011.22 1011.30
1004.53 1003.79 1003.05 1002.33 1001.69 1001.17 1000.80 1000.62 1000.63 1000.83 1001.20 1001.72 1002.35 1003.06 1003.82 1004.60 1005.36 1006.08 1006.76 1007.37 1007.93 1008.42 1008.85 1009.22 1009.53 1009.79 1010.01 1010.18 1010.31 1010.41 1010.49 1010.56 1010.62 1010.68 1010.75 1010.82 1010.91 1011.00 1011.10 1011.20 1011.29 1011.36 1011.42
1004.73 1004.00 1003.23 1002.47 1001.75 1001.13 1000.64 1000.33 1000.21 1000.29 1000.56 1001.01 1001.61 1002.33 1003.12 1003.96 1004.81 1005.63 1006.40 1007.12 1007.76 1008.32 1008.80 1009.20 1009.54 1009.82 1010.04 1010.22 1010.37 1010.49 1010.58 1010.67 1010.75 1010.83 1010.90 1010.98 1011.06 1011.14 1011.22 1011.29 1011.35 1011.40 1011.44
Thickness
5775 5774 5769 5764 5759 5754 5750 5745 5740 5736 5730 5724 5720 5715 5711 5709 5706 5703 5698 5695 5692 5690 5688 5685 5684 5684 5682 5682 5683 5684 5685 5687 5692 5693 5696 5704 5712 5715 5719 5725 5729 5733 5737
5773 5768 5766 5761 5757 5752 5748 5744 5739 5735 5729 5723 5720 5716 5712 5709 5706 5702 5698 5694 5691 5689 5687 5684 5682 5682 5681 5680 5681 5682 5681 5684 5688 5687 5687 5689 5697 5706 5716 5720 5724 5728 5733
5772 5767 5764 5759 5755 5750 5747 5744 5739 5734 5729 5724 5720 5715 5711 5707 5703 5699 5696 5694 5691 5688 5686 5683 5682 5681 5680 5679 5679 5680 5679 5678 5683 5687 5685 5682 5683 5694 5706 5714 5720 5724 5727
5775 5768 5763 5758 5754 5751 5748 5744 5739 5735 5729 5724 5718 5712 5706 5701 5700 5698 5696 5694 5692 5689 5686 5683 5682 5680 5680 5678 5678 5679 5679 5678 5677 5682 5685 5687 5688 5687 5692 5703 5713 5719 5723
5774 5768 5763 5759 5756 5752 5747 5743 5738 5733 5728 5723 5717 5712 5707 5704 5702 5699 5696 5693 5691 5689 5686 5683 5681 5680 5679 5678 5678 5678 5678 5677 5677 5677 5679 5683 5686 5689 5688 5690 5700 5709 5717
5773 5768 5764 5759 5754 5750 5745 5741 5735 5730 5727 5722 5718 5713 5708 5704 5700 5697 5694 5692 5690 5688 5686 5684 5682 5680 5678 5677 5676 5676 5677 5677 5677 5677 5678 5679 5679 5682 5685 5686 5692 5698 5708
5770 5765 5759 5755 5750 5746 5742 5738 5733 5728 5726 5722 5718 5715 5710 5706 5701 5697 5695 5692 5689 5687 5685 5684 5682 5680 5678 5677 5676 5675 5675 5676 5676 5676 5677 5679 5680 5683 5684 5684 5687 5693 5701
5769 5764 5759 5754 5749 5745 5741 5738 5733 5728 5725 5722 5719 5716 5713 5708 5704 5700 5696 5693 5690 5688 5687 5685 5683 5681 5679 5677 5676 5675 5675 5676 5675 5676 5676 5677 5679 5681 5682 5683 5683 5685 5691
5767 5763 5759 5755 5750 5746 5742 5738 5734 5729 5726 5723 5720 5717 5714 5709 5705 5702 5699 5695 5693 5691 5688 5686 5684 5682 5680 5678 5676 5674 5674 5674 5673 5674 5674 5675 5677 5679 5681 5682 5683 5680 5680
5765 5763 5759 5755 5752 5748 5744 5740 5736 5732 5728 5724 5721 5718 5714 5710 5706 5703 5698 5696 5693 5691 5688 5686 5684 5682 5680 5678 5676 5674 5674 5673 5673 5673 5673 5673 5674 5675 5678 5680 5681 5682 5680
5763 5761 5758 5756 5753 5749 5745 5740 5737 5733 5729 5726 5723 5719 5715 5711 5708 5704 5700 5697 5694 5692 5690 5687 5685 5683 5680 5678 5676 5674 5673 5672 5671 5672 5671 5671 5672 5672 5674 5676 5677 5678 5679
5764 5762 5758 5755 5751 5748 5744 5741 5738 5734 5730 5727 5724 5719 5716 5712 5708 5705 5702 5699 5696 5694 5692 5689 5686 5684 5681 5679 5676 5674 5673 5671 5669 5669 5669 5669 5670 5669 5670 5671 5672 5674 5676
5763 5760 5756 5753 5750 5747 5745 5742 5739 5735 5732 5728 5724 5720 5717 5713 5709 5706 5704 5701 5698 5695 5693 5690 5687 5684 5682 5679 5677 5674 5673 5671 5670 5669 5667 5667 5666 5665 5666 5667 5668 5670 5673
5760 5757 5753 5751 5750 5748 5745 5743 5740 5737 5733 5728 5723 5720 5717 5714 5711 5707 5704 5701 5698 5695 5692 5690 5688 5685 5683 5679 5677 5675 5673 5671 5670 5669 5668 5666 5664 5662 5662 5663 5664 5665 5666
5758 5756 5752 5751 5749 5747 5745 5743 5740 5738 5734 5728 5723 5720 5718 5715 5711 5707 5704 5701 5697 5695 5692 5690 5687 5685 5682 5678 5675 5673 5672 5670 5669 5668 5667 5665 5664 5662 5660 5660 5659 5660 5660
5758 5757 5754 5752 5749 5747 5745 5743 5740 5738 5735 5729 5724 5721 5718 5714 5710 5707 5703 5700 5696 5694 5691 5688 5685 5682 5680 5676 5674 5671 5669 5668 5667 5666 5666 5665 5663 5661 5659 5658 5658 5658 5657
5758 5757 5755 5753 5752 5751 5748 5743 5741 5738 5734 5729 5725 5721 5717 5712 5709 5706 5702 5698 5695 5692 5689 5686 5684 5680 5676 5674 5672 5669 5667 5665 5664 5664 5663 5663 5662 5659 5657 5656 5656 5656 5657
5757 5757 5757 5755 5755 5754 5751 5746 5742 5737 5732 5728 5724 5720 5715 5711 5707 5704 5700 5697 5694 5691 5687 5685 5682 5678 5675 5672 5670 5668 5665 5664 5664 5662 5661 5659 5657 5655 5654 5653 5653 5653 5654
5756 5757 5758 5757 5755 5753 5751 5745 5740 5735 5730 5726 5722 5719 5714 5709 5705 5701 5698 5695 5692 5689 5686 5683 5680 5677 5673 5670 5668 5666 5664 5663 5662 5661 5659 5657 5653 5652 5651 5650 5648 5648 5650
5754 5754 5755 5755 5752 5751 5749 5742 5737 5732 5727 5724 5721 5718 5714 5708 5703 5700 5697 5694 5690 5687 5684 5681 5679 5675 5671 5667 5666 5663 5661 5659 5658 5657 5655 5652 5650 5648 5646 5645 5643 5642 5643
5748 5749 5749 5747 5746 5747 5743 5737 5733 5729 5727 5723 5719 5715 5711 5706 5702 5698 5695 5692 5688 5684 5681 5679 5676 5672 5668 5664 5662 5660 5657 5654 5653 5651 5648 5646 5645 5643 5642 5640 5638 5637 5638
5738 5740 5738 5738 5740 5740 5737 5731 5728 5728 5725 5719 5714 5710 5707 5704 5700 5694 5691 5689 5685 5681 5678 5675 5672 5669 5665 5661 5658 5655 5652 5650 5647 5645 5642 5640 5639 5638 5637 5635 5635 5634 5634
5726 5729 5729 5728 5730 5732 5730 5725 5723 5722 5718 5713 5708 5704 5702 5698 5695 5690 5686 5683 5680 5677 5674 5670 5666 5664 5661 5656 5654 5651 5648 5645 5642 5639 5637 5636 5634 5633 5632 5631 5630 5629 5627
5714 5717 5718 5718 5719 5722 5722 5721 5719 5716 5711 5706 5701 5698 5695 5691 5688 5685 5682 5677 5674 5671 5669 5666 5662 5658 5654 5649 5646 5643 5641 5639 5636 5634 5632 5631 5629 5627 5626 5625 5623 5622 5620
5703 5706 5707 5708 5711 5713 5714 5714 5712 5709 5704 5700 5696 5693 5690 5686 5681 5676 5671 5669 5665 5663 5661 5658 5655 5651 5646 5641 5640 5636 5634 5631 5629 5628 5626 5624 5622 5620 5618 5617 5616 5614 5613
5691 5693 5696 5698 5702 5704 5705 5706 5705 5702 5698 5693 5690 5687 5683 5679 5674 5667 5660 5657 5656 5655 5653 5651 5647 5643 5640 5637 5634 5632 5629 5627 5625 5622 5619 5617 5615 5612 5610 5608 5606 5605 5604